Location: Grand Moustoir
(47.8355°N, 3.3120°W)
Time: 21:17:26
(UTC+00:00)

STARLINK-26 - Pass Details

Date: 20 January 2020
Orbit: 434 x 437 km, 53.0° (Epoch: 28 February)

Event Time Altitude Azimuth Distance (km) Brightness Sun altitude
Exits shadow 04:41:13 12° 101° (E) 1,436 6.5 -32.0°
Drops below altitude 10° 04:41:41 10° 94° (E) 1,548 6.8 -31.9°
Enters shadow 05:41:42 -63° 239° (WSW) 11,839 10.4 -21.8°
Maximum altitude 06:16:07 85° 153° (SSE) 444 3.1 -16.1°
